Time,TemperatureF,DewpointF,PressureIn,WindDirection,WindDirectionDegrees,WindSpeedMPH,WindSpeedGustMPH,Humidity,HourlyPrecipIn,Conditions,Clouds,dailyrainin,SoftwareType,DateUTC
2013-03-26 00:02:00,21.0,18.0,30.39,West,280,3.0,-999.0,85,-99.99,,,-99.99,,2013-03-26 05:02:00,
2013-03-26 00:12:00,21.0,18.0,30.39,WNW,290,3.0,-999.0,85,-99.99,,,-99.99,,2013-03-26 05:12:00,
2013-03-26 00:22:00,21.0,18.0,30.39,WNW,290,3.0,-999.0,85,-99.99,,,-99.99,,2013-03-26 05:22:00,
2013-03-26 00:32:00,21.0,18.0,30.39,North,0,0.0,-999.0,85,-99.99,,,-99.99,,2013-03-26 05:32:00,
2013-03-26 00:42:00,21.0,18.0,30.39,WNW,300,3.0,-999.0,85,-99.99,,,-99.99,,2013-03-26 05:42:00,
2013-03-26 00:52:00,21.0,18.0,30.39,NW,310,3.0,-999.0,85,-99.99,,,-99.99,,2013-03-26 05:52:00,
2013-03-26 01:02:00,21.0,18.0,30.39,NW,310,3.0,-999.0,85,-99.99,,,-99.99,,2013-03-26 06:02:00,
2013-03-26 01:12:00,21.0,18.0,30.39,WNW,300,3.0,-999.0,85,-99.99,,,-99.99,,2013-03-26 06:12:00,
2013-03-26 01:22:00,21.0,18.0,30.39,WNW,290,3.0,-999.0,85,-99.99,,,-99.99,,2013-03-26 06:22:00,
2013-03-26 01:32:00,21.0,18.0,30.39,WNW,290,5.0,-999.0,85,-99.99,,,-99.99,,2013-03-26 06:32:00,
2013-03-26 01:42:00,21.0,18.0,30.39,NW,310,5.0,-999.0,85,-99.99,,,-99.99,,2013-03-26 06:42:00,
2013-03-26 01:52:00,19.0,18.0,30.39,NW,320,5.0,-999.0,92,-99.99,,,-99.99,,2013-03-26 06:52:00,
2013-03-26 02:02:00,19.0,18.0,30.39,NW,320,5.0,-999.0,92,-99.99,,,-99.99,,2013-03-26 07:02:00,
2013-03-26 02:12:00,19.0,18.0,30.39,NW,310,5.0,-999.0,92,-99.99,,,-99.99,,2013-03-26 07:12:00,
2013-03-26 02:22:00,19.0,16.0,30.39,NW,310,3.0,-999.0,85,-99.99,,,-99.99,,2013-03-26 07:22:00,
2013-03-26 02:32:00,19.0,18.0,30.39,North,0,0.0,-999.0,92,-99.99,,,-99.99,,2013-03-26 07:32:00,
2013-03-26 02:42:00,19.0,16.0,30.39,North,0,0.0,-999.0,85,-99.99,,,-99.99,,2013-03-26 07:42:00,
2013-03-26 02:52:00,19.0,16.0,30.39,North,0,0.0,-999.0,85,-99.99,,,-99.99,,2013-03-26 07:52:00,
2013-03-26 03:02:00,19.0,16.0,30.39,North,0,0.0,-999.0,85,-99.99,,,-99.99,,2013-03-26 08:02:00,
2013-03-26 03:12:00,19.0,16.0,30.39,North,0,0.0,-999.0,85,-99.99,,,-99.99,,2013-03-26 08:12:00,
2013-03-26 03:22:00,19.0,16.0,30.39,NW,320,3.0,-999.0,85,-99.99,,,-99.99,,2013-03-26 08:22:00,
2013-03-26 03:32:00,19.0,16.0,30.39,North,0,0.0,-999.0,85,-99.99,,,-99.99,,2013-03-26 08:32:00,
2013-03-26 03:42:00,19.0,18.0,30.39,North,0,0.0,-999.0,92,-99.99,,,-99.99,,2013-03-26 08:42:00,
2013-03-26 03:52:00,18.0,16.0,30.39,North,0,0.0,-999.0,92,-99.99,,,-99.99,,2013-03-26 08:52:00,
2013-03-26 04:02:00,18.0,16.0,30.39,North,0,0.0,-999.0,92,-99.99,,,-99.99,,2013-03-26 09:02:00,
2013-03-26 04:12:00,18.0,16.0,30.39,West,280,3.0,-999.0,92,-99.99,,,-99.99,,2013-03-26 09:12:00,
2013-03-26 04:22:00,18.0,16.0,30.39,North,0,0.0,-999.0,92,-99.99,,,-99.99,,2013-03-26 09:22:00,
2013-03-26 04:32:00,19.0,16.0,30.38,North,0,0.0,-999.0,85,-99.99,,,-99.99,,2013-03-26 09:32:00,
2013-03-26 04:42:00,18.0,16.0,30.38,North,0,0.0,-999.0,92,-99.99,,,-99.99,,2013-03-26 09:42:00,
2013-03-26 04:52:00,18.0,16.0,30.39,North,0,0.0,-999.0,92,-99.99,,,-99.99,,2013-03-26 09:52:00,
2013-03-26 05:02:00,18.0,16.0,30.39,North,0,0.0,-999.0,92,-99.99,,,-99.99,,2013-03-26 10:02:00,
2013-03-26 05:12:00,18.0,16.0,30.39,North,0,0.0,-999.0,92,-99.99,,,-99.99,,2013-03-26 10:12:00,
2013-03-26 05:22:00,18.0,16.0,30.39,North,0,0.0,-999.0,92,-99.99,,,-99.99,,2013-03-26 10:22:00,
2013-03-26 05:32:00,18.0,16.0,30.39,North,0,0.0,-999.0,92,-99.99,,,-99.99,,2013-03-26 10:32:00,
2013-03-26 05:42:00,19.0,18.0,30.39,North,0,0.0,-999.0,92,-99.99,,,-99.99,,2013-03-26 10:42:00,
2013-03-26 05:52:00,18.0,16.0,30.39,North,0,0.0,-999.0,92,-99.99,,,-99.99,,2013-03-26 10:52:00,
2013-03-26 06:03:00,18.0,16.0,30.39,North,0,0.0,-999.0,92,-99.99,,,-99.99,,2013-03-26 11:03:00,
2013-03-26 06:12:00,19.0,18.0,30.40,North,0,0.0,-999.0,92,-99.99,,,-99.99,,2013-03-26 11:12:00,
2013-03-26 06:22:00,18.0,14.0,30.40,North,0,0.0,-999.0,85,-99.99,,,-99.99,,2013-03-26 11:22:00,
2013-03-26 06:32:00,16.0,14.0,30.41,North,0,0.0,-999.0,92,-99.99,,,-99.99,,2013-03-26 11:32:00,
2013-03-26 06:42:00,16.0,14.0,30.41,North,0,0.0,-999.0,92,-99.99,,,-99.99,,2013-03-26 11:42:00,
2013-03-26 06:52:00,18.0,14.0,30.41,North,0,0.0,-999.0,85,-99.99,,,-99.99,,2013-03-26 11:52:00,
2013-03-26 07:03:00,18.0,14.0,30.41,North,0,0.0,-999.0,85,-99.99,,,-99.99,,2013-03-26 12:03:00,
2013-03-26 07:12:00,16.0,12.0,30.41,North,0,0.0,-999.0,85,-99.99,,,-99.99,,2013-03-26 12:12:00,
2013-03-26 07:22:00,18.0,16.0,30.42,NNW,330,3.0,-999.0,92,-99.99,,,-99.99,,2013-03-26 12:22:00,
2013-03-26 07:32:00,18.0,14.0,30.42,North,0,0.0,-999.0,85,-99.99,,,-99.99,,2013-03-26 12:32:00,
2013-03-26 07:42:00,18.0,14.0,30.42,North,0,0.0,-999.0,85,-99.99,,,-99.99,,2013-03-26 12:42:00,
2013-03-26 07:52:00,18.0,16.0,30.42,North,0,0.0,-999.0,92,-99.99,,,-99.99,,2013-03-26 12:52:00,
2013-03-26 08:03:00,18.0,16.0,30.42,North,0,0.0,-999.0,92,-99.99,,,-99.99,,2013-03-26 13:03:00,
2013-03-26 08:12:00,18.0,16.0,30.42,North,0,0.0,-999.0,92,-99.99,,,-99.99,,2013-03-26 13:12:00,
2013-03-26 08:22:00,19.0,18.0,30.42,North,0,0.0,-999.0,92,-99.99,,,-99.99,,2013-03-26 13:22:00,
2013-03-26 08:32:00,19.0,18.0,30.43,North,0,0.0,-999.0,92,-99.99,,,-99.99,,2013-03-26 13:32:00,
2013-03-26 08:42:00,23.0,19.0,30.43,North,0,0.0,-999.0,85,-99.99,,,-99.99,,2013-03-26 13:42:00,
2013-03-26 08:52:00,25.0,21.0,30.43,North,0,0.0,-999.0,85,-99.99,,,-99.99,,2013-03-26 13:52:00,
2013-03-26 09:02:00,25.0,21.0,30.43,North,0,0.0,-999.0,85,-99.99,,,-99.99,,2013-03-26 14:02:00,
2013-03-26 09:11:00,27.0,21.0,30.43,North,0,0.0,-999.0,79,-99.99,,,-99.99,,2013-03-26 14:11:00,
2013-03-26 09:22:00,28.0,21.0,30.44,North,0,0.0,-999.0,74,-99.99,,,-99.99,,2013-03-26 14:22:00,
2013-03-26 09:32:00,28.0,21.0,30.44,North,0,0.0,-999.0,74,-99.99,,,-99.99,,2013-03-26 14:32:00,
2013-03-26 09:42:00,28.0,21.0,30.44,North,0,0.0,-999.0,74,-99.99,,,-99.99,,2013-03-26 14:42:00,
2013-03-26 09:52:00,30.0,21.0,30.44,North,0,0.0,-999.0,68,-99.99,,,-99.99,,2013-03-26 14:52:00,
2013-03-26 10:02:00,30.0,21.0,30.44,North,0,0.0,-999.0,68,-99.99,,,-99.99,,2013-03-26 15:02:00,
2013-03-26 10:12:00,30.0,21.0,30.44,North,0,0.0,-999.0,68,-99.99,,,-99.99,,2013-03-26 15:12:00,
2013-03-26 10:22:00,32.0,19.0,30.43,North,0,0.0,-999.0,59,-99.99,,,-99.99,,2013-03-26 15:22:00,
2013-03-26 10:33:00,32.0,19.0,30.43,North,0,0.0,-999.0,59,-99.99,,,-99.99,,2013-03-26 15:33:00,
2013-03-26 10:42:00,34.0,19.0,30.43,North,0,0.0,-999.0,55,-99.99,,,-99.99,,2013-03-26 15:42:00,
2013-03-26 10:52:00,34.0,19.0,30.43,SSE,160,3.0,-999.0,55,-99.99,,,-99.99,,2013-03-26 15:52:00,
2013-03-26 11:02:00,34.0,19.0,30.43,SSE,160,3.0,-999.0,55,-99.99,,,-99.99,,2013-03-26 16:02:00,
2013-03-26 11:12:00,34.0,19.0,30.43,SSW,210,5.0,-999.0,55,-99.99,,,-99.99,,2013-03-26 16:12:00,
2013-03-26 11:22:00,36.0,19.0,30.43,SSW,210,3.0,-999.0,51,-99.99,,,-99.99,,2013-03-26 16:22:00,
2013-03-26 11:32:00,36.0,21.0,30.42,North,0,0.0,-999.0,55,-99.99,,,-99.99,,2013-03-26 16:32:00,
2013-03-26 11:42:00,36.0,19.0,30.42,SSW,200,5.0,-999.0,51,-99.99,,,-99.99,,2013-03-26 16:42:00,
2013-03-26 11:53:00,37.0,21.0,30.41,SW,220,3.0,-999.0,51,-99.99,,,-99.99,,2013-03-26 16:53:00,
2013-03-26 12:02:00,37.0,21.0,30.41,SW,220,3.0,-999.0,51,-99.99,,,-99.99,,2013-03-26 17:02:00,
2013-03-26 12:12:00,37.0,21.0,30.42,South,180,3.0,-999.0,51,-99.99,,,-99.99,,2013-03-26 17:12:00,
2013-03-26 12:22:00,37.0,21.0,30.41,North,0,0.0,-999.0,51,-99.99,,,-99.99,,2013-03-26 17:22:00,
2013-03-26 12:32:00,39.0,21.0,30.41,North,0,0.0,-999.0,48,-99.99,,,-99.99,,2013-03-26 17:32:00,
2013-03-26 12:42:00,39.0,21.0,30.40,West,270,3.0,-999.0,48,-99.99,,,-99.99,,2013-03-26 17:42:00,
2013-03-26 12:52:00,39.0,21.0,30.40,West,270,5.0,-999.0,48,-99.99,,,-99.99,,2013-03-26 17:52:00,
2013-03-26 13:02:00,39.0,21.0,30.40,West,270,5.0,-999.0,48,-99.99,,,-99.99,,2013-03-26 18:02:00,
2013-03-26 13:12:00,39.0,21.0,30.39,North,0,0.0,-999.0,48,-99.99,,,-99.99,,2013-03-26 18:12:00,
2013-03-26 13:23:00,41.0,21.0,30.39,North,0,0.0,-999.0,44,-99.99,,,-99.99,,2013-03-26 18:23:00,
2013-03-26 13:33:00,41.0,21.0,30.39,SSW,200,3.0,-999.0,44,-99.99,,,-99.99,,2013-03-26 18:33:00,
2013-03-26 13:42:00,43.0,21.0,30.38,WSW,250,3.0,-999.0,41,-99.99,,,-99.99,,2013-03-26 18:42:00,
2013-03-26 13:52:00,43.0,21.0,30.37,SW,230,7.0,-999.0,41,-99.99,,,-99.99,,2013-03-26 18:52:00,
2013-03-26 14:02:00,43.0,21.0,30.37,SW,230,7.0,-999.0,41,-99.99,,,-99.99,,2013-03-26 19:02:00,
2013-03-26 14:12:00,43.0,23.0,30.36,SE,130,5.0,-999.0,45,-99.99,,,-99.99,,2013-03-26 19:12:00,
2013-03-26 14:22:00,45.0,25.0,30.35,South,190,3.0,-999.0,45,-99.99,,,-99.99,,2013-03-26 19:22:00,
2013-03-26 14:32:00,45.0,21.0,30.35,North,0,0.0,-999.0,39,-99.99,,,-99.99,,2013-03-26 19:32:00,
2013-03-26 14:42:00,45.0,21.0,30.34,SSE,160,5.0,-999.0,39,-99.99,,,-99.99,,2013-03-26 19:42:00,
2013-03-26 14:52:00,45.0,23.0,30.33,SSW,200,3.0,-999.0,42,-99.99,,,-99.99,,2013-03-26 19:52:00,
2013-03-26 15:02:00,45.0,23.0,30.33,SSW,200,3.0,-999.0,42,-99.99,,,-99.99,,2013-03-26 20:02:00,
2013-03-26 15:12:00,45.0,21.0,30.33,North,0,0.0,-999.0,39,-99.99,,,-99.99,,2013-03-26 20:12:00,
2013-03-26 15:22:00,46.0,21.0,30.32,SSE,160,6.0,-999.0,36,-99.99,,,-99.99,,2013-03-26 20:22:00,
2013-03-26 15:32:00,46.0,21.0,30.32,SE,130,6.0,-999.0,36,-99.99,,,-99.99,,2013-03-26 20:32:00,
2013-03-26 15:42:00,46.0,23.0,30.31,North,0,0.0,-999.0,39,-99.99,,,-99.99,,2013-03-26 20:42:00,
2013-03-26 15:52:00,46.0,23.0,30.30,South,170,3.0,-999.0,39,-99.99,,,-99.99,,2013-03-26 20:52:00,
2013-03-26 16:02:00,46.0,23.0,30.30,South,170,3.0,-999.0,39,-99.99,,,-99.99,,2013-03-26 21:02:00,
2013-03-26 16:12:00,46.0,23.0,30.29,SSW,200,9.0,-999.0,39,-99.99,,,-99.99,,2013-03-26 21:12:00,
2013-03-26 16:22:00,46.0,23.0,30.29,SW,220,7.0,-999.0,39,-99.99,,,-99.99,,2013-03-26 21:22:00,
2013-03-26 16:32:00,48.0,25.0,30.28,SE,140,10.0,-999.0,39,-99.99,,,-99.99,,2013-03-26 21:32:00,
2013-03-26 16:42:00,48.0,25.0,30.27,SSW,210,10.0,16.0,39,-99.99,,,-99.99,,2013-03-26 21:42:00,
2013-03-26 16:52:00,48.0,23.0,30.27,South,180,9.0,-999.0,36,-99.99,,,-99.99,,2013-03-26 21:52:00,
2013-03-26 17:02:00,48.0,23.0,30.27,South,180,9.0,-999.0,36,-99.99,,,-99.99,,2013-03-26 22:02:00,
2013-03-26 17:12:00,48.0,25.0,30.27,SSE,160,9.0,-999.0,39,-99.99,,,-99.99,,2013-03-26 22:12:00,
2013-03-26 17:22:00,48.0,25.0,30.26,SE,140,8.0,-999.0,39,-99.99,,,-99.99,,2013-03-26 22:22:00,
2013-03-26 17:33:00,48.0,25.0,30.25,SE,130,8.0,12.0,39,-99.99,,,-99.99,,2013-03-26 22:33:00,
2013-03-26 17:42:00,48.0,25.0,30.25,SE,130,9.0,-999.0,39,-99.99,,,-99.99,,2013-03-26 22:42:00,
2013-03-26 17:52:00,48.0,25.0,30.24,SE,140,12.0,-999.0,39,-99.99,,,-99.99,,2013-03-26 22:52:00,
2013-03-26 18:01:00,48.0,25.0,30.24,SE,140,12.0,-999.0,39,-99.99,,,-99.99,,2013-03-26 23:01:00,
2013-03-26 18:10:00,48.0,23.0,30.24,SSE,150,12.0,-999.0,36,-99.99,,,-99.99,,2013-03-26 23:10:00,
2013-03-26 18:22:00,48.0,21.0,30.24,South,170,13.0,16.0,34,-99.99,,,-99.99,,2013-03-26 23:22:00,
2013-03-26 18:32:00,48.0,23.0,30.24,SSE,150,10.0,-999.0,36,-99.99,,,-99.99,,2013-03-26 23:32:00,
2013-03-26 18:42:00,48.0,23.0,30.25,SSE,150,13.0,-999.0,36,-99.99,,,-99.99,,2013-03-26 23:42:00,
2013-03-26 18:52:00,46.0,23.0,30.25,SSE,150,10.0,-999.0,39,-99.99,,,-99.99,,2013-03-26 23:52:00,
2013-03-26 19:02:00,46.0,23.0,30.25,SSE,150,10.0,-999.0,39,-99.99,,,-99.99,,2013-03-27 00:02:00,
2013-03-26 19:12:00,46.0,23.0,30.25,SSE,160,12.0,-999.0,39,-99.99,,,-99.99,,2013-03-27 00:12:00,
2013-03-26 19:22:00,46.0,23.0,30.25,SSE,160,9.0,-999.0,39,-99.99,,,-99.99,,2013-03-27 00:22:00,
2013-03-26 19:32:00,45.0,25.0,30.25,SSE,150,8.0,-999.0,45,-99.99,,,-99.99,,2013-03-27 00:32:00,
2013-03-26 19:42:00,45.0,25.0,30.25,SSE,150,7.0,-999.0,45,-99.99,,,-99.99,,2013-03-27 00:42:00,
2013-03-26 19:52:00,43.0,25.0,30.25,SE,130,6.0,-999.0,48,-99.99,,,-99.99,,2013-03-27 00:52:00,
2013-03-26 20:02:00,43.0,25.0,30.25,SE,130,6.0,-999.0,48,-99.99,,,-99.99,,2013-03-27 01:02:00,
2013-03-26 20:12:00,43.0,25.0,30.24,ESE,120,7.0,-999.0,48,-99.99,,,-99.99,,2013-03-27 01:12:00,
2013-03-26 20:22:00,39.0,25.0,30.24,ESE,110,7.0,-999.0,55,-99.99,,,-99.99,,2013-03-27 01:22:00,
2013-03-26 20:32:00,39.0,25.0,30.23,ESE,110,7.0,-999.0,55,-99.99,,,-99.99,,2013-03-27 01:32:00,
2013-03-26 20:42:00,39.0,25.0,30.23,ESE,110,8.0,-999.0,55,-99.99,,,-99.99,,2013-03-27 01:42:00,
2013-03-26 20:52:00,37.0,25.0,30.23,ESE,110,8.0,-999.0,60,-99.99,,,-99.99,,2013-03-27 01:52:00,
2013-03-26 21:02:00,37.0,25.0,30.23,ESE,110,8.0,-999.0,60,-99.99,,,-99.99,,2013-03-27 02:02:00,
2013-03-26 21:12:00,37.0,25.0,30.23,ESE,110,8.0,-999.0,60,-99.99,,,-99.99,,2013-03-27 02:12:00,
2013-03-26 21:22:00,37.0,25.0,30.23,ESE,120,8.0,-999.0,60,-99.99,,,-99.99,,2013-03-27 02:22:00,
2013-03-26 21:32:00,37.0,25.0,30.22,ESE,110,8.0,-999.0,60,-99.99,,,-99.99,,2013-03-27 02:32:00,
2013-03-26 21:42:00,37.0,25.0,30.22,ESE,120,7.0,-999.0,60,-99.99,,,-99.99,,2013-03-27 02:42:00,
2013-03-26 21:52:00,37.0,25.0,30.22,ESE,120,9.0,-999.0,60,-99.99,,,-99.99,,2013-03-27 02:52:00,
2013-03-26 22:02:00,37.0,25.0,30.22,ESE,120,9.0,-999.0,60,-99.99,,,-99.99,,2013-03-27 03:02:00,
2013-03-26 22:12:00,37.0,25.0,30.22,ESE,120,10.0,-999.0,60,-99.99,,,-99.99,,2013-03-27 03:12:00,
2013-03-26 22:22:00,36.0,25.0,30.22,ESE,120,8.0,-999.0,64,-99.99,,,-99.99,,2013-03-27 03:22:00,
2013-03-26 22:33:00,36.0,25.0,30.22,ESE,120,9.0,-999.0,64,-99.99,,,-99.99,,2013-03-27 03:33:00,
2013-03-26 22:42:00,36.0,25.0,30.22,ESE,120,10.0,-999.0,64,-99.99,,,-99.99,,2013-03-27 03:42:00,
2013-03-26 22:52:00,36.0,25.0,30.21,ESE,120,10.0,-999.0,64,-99.99,,,-99.99,,2013-03-27 03:52:00,
2013-03-26 23:02:00,36.0,25.0,30.21,ESE,120,10.0,-999.0,64,-99.99,,,-99.99,,2013-03-27 04:02:00,
2013-03-26 23:12:00,36.0,23.0,30.21,ESE,120,9.0,-999.0,59,-99.99,,,-99.99,,2013-03-27 04:12:00,
2013-03-26 23:23:00,36.0,25.0,30.21,ESE,120,8.0,-999.0,64,-99.99,,,-99.99,,2013-03-27 04:23:00,
2013-03-26 23:33:00,34.0,25.0,30.22,ESE,120,8.0,-999.0,69,-99.99,,,-99.99,,2013-03-27 04:33:00,
2013-03-26 23:42:00,34.0,25.0,30.22,ESE,120,7.0,-999.0,69,-99.99,,,-99.99,,2013-03-27 04:42:00,
2013-03-26 23:52:00,34.0,25.0,30.21,ESE,120,8.0,-999.0,69,-99.99,,,-99.99,,2013-03-27 04:52:00,